TimeCST,TemperatureF,Dew PointF,Humidity,Sea Level PressureIn,VisibilityMPH,Wind Direction,Wind SpeedMPH,Gust SpeedMPH,PrecipitationIn,Events,Conditions,WindDirDegrees,DateUTC
12:53 AM,53.1,39.9,61,30.29,10.0,East,5.8,-,N/A,,Clear,90,2013-03-03 06:53:00
1:53 AM,50.0,39.0,66,30.30,10.0,ESE,4.6,-,N/A,,Clear,110,2013-03-03 07:53:00
2:53 AM,46.0,39.9,79,30.28,10.0,ESE,3.5,-,N/A,,Clear,110,2013-03-03 08:53:00
3:53 AM,48.9,39.9,71,30.27,10.0,SE,4.6,-,N/A,,Clear,130,2013-03-03 09:53:00
4:53 AM,46.9,39.9,77,30.25,10.0,SSE,4.6,-,N/A,,Clear,150,2013-03-03 10:53:00
6:53 AM,46.9,43.0,86,30.26,10.0,SE,4.6,-,N/A,,Clear,130,2013-03-03 12:53:00
7:53 AM,48.9,43.0,80,30.28,10.0,SW,4.6,-,N/A,,Clear,230,2013-03-03 13:53:00
8:53 AM,55.9,41.0,57,30.30,10.0,WSW,5.8,-,N/A,,Clear,250,2013-03-03 14:53:00
9:53 AM,62.1,43.0,50,30.29,10.0,Variable,3.5,-,N/A,,Clear,0,2013-03-03 15:53:00
10:53 AM,64.9,43.0,45,30.27,10.0,Variable,6.9,-,N/A,,Clear,0,2013-03-03 16:53:00
11:53 AM,68.0,46.0,45,30.24,10.0,SSE,11.5,16.1,N/A,,Clear,160,2013-03-03 17:53:00
12:53 PM,66.9,46.0,47,30.21,10.0,SSE,12.7,19.6,N/A,,Clear,160,2013-03-03 18:53:00
1:53 PM,66.9,48.0,51,30.16,10.0,SSE,12.7,21.9,N/A,,Clear,160,2013-03-03 19:53:00
2:53 PM,68.0,51.1,55,30.14,10.0,SSE,15.0,23.0,N/A,,Clear,160,2013-03-03 20:53:00
3:53 PM,66.9,46.9,49,30.11,10.0,SSE,15.0,21.9,N/A,,Clear,160,2013-03-03 21:53:00
4:53 PM,66.9,48.0,51,30.09,10.0,SSE,11.5,21.9,N/A,,Clear,160,2013-03-03 22:53:00
5:53 PM,64.9,50.0,58,30.08,10.0,SSE,12.7,23.0,N/A,,Clear,150,2013-03-03 23:53:00
6:53 PM,63.0,51.1,65,30.08,10.0,SSE,12.7,21.9,N/A,,Clear,150,2013-03-04 00:53:00
7:53 PM,63.0,53.1,70,30.07,10.0,SSE,11.5,19.6,N/A,,Clear,160,2013-03-04 01:53:00
8:53 PM,63.0,54.0,72,30.06,10.0,South,10.4,21.9,N/A,,Clear,170,2013-03-04 02:53:00
9:53 PM,63.0,54.0,72,30.06,10.0,South,12.7,19.6,N/A,,Clear,180,2013-03-04 03:53:00
10:53 PM,63.0,54.0,72,30.04,10.0,South,13.8,21.9,N/A,,Clear,180,2013-03-04 04:53:00
11:53 PM,63.0,54.0,72,30.02,10.0,South,10.4,19.6,N/A,,Clear,180,2013-03-04 05:53:00